Year,Month,Day,Hour,Minute,Value (Times are PST for temperature in C)
2017,06,23,00,00,13.90
2017,06,23,00,01,13.90
2017,06,23,00,02,13.80
2017,06,23,00,03,13.80
2017,06,23,00,04,13.80
2017,06,23,00,05,13.80
2017,06,23,00,06,13.70
2017,06,23,00,07,13.70
2017,06,23,00,08,13.70
2017,06,23,00,09,13.60
2017,06,23,00,10,13.60
2017,06,23,00,11,13.60
2017,06,23,00,12,13.60
2017,06,23,00,13,13.50
2017,06,23,00,14,13.50
2017,06,23,00,15,13.50
2017,06,23,00,16,13.50
2017,06,23,00,17,13.40
2017,06,23,00,18,13.40
2017,06,23,00,19,13.50
2017,06,23,00,20,13.50
2017,06,23,00,21,13.50
2017,06,23,00,22,13.50
2017,06,23,00,23,13.50
2017,06,23,00,24,13.50
2017,06,23,00,25,13.50
2017,06,23,00,26,13.50
2017,06,23,00,27,13.60
2017,06,23,00,28,13.50
2017,06,23,00,29,13.50
2017,06,23,00,30,13.50
2017,06,23,00,31,13.50
2017,06,23,00,32,13.40
2017,06,23,00,33,13.40
2017,06,23,00,34,13.40
2017,06,23,00,35,13.40
2017,06,23,00,36,13.40
2017,06,23,00,37,13.40
2017,06,23,00,38,13.40
2017,06,23,00,39,13.40
2017,06,23,00,40,13.40
2017,06,23,00,41,13.30
2017,06,23,00,42,13.40
2017,06,23,00,43,13.40
2017,06,23,00,44,13.40
2017,06,23,00,45,13.40
2017,06,23,00,46,13.40
2017,06,23,00,47,13.40
2017,06,23,00,48,13.40
2017,06,23,00,49,13.40
2017,06,23,00,50,13.40
2017,06,23,00,51,13.40
2017,06,23,00,52,13.40
2017,06,23,00,53,13.40
2017,06,23,00,54,13.40
2017,06,23,00,55,13.40
2017,06,23,00,56,13.40
2017,06,23,00,57,13.40
2017,06,23,00,58,13.40
2017,06,23,00,59,13.40
2017,06,23,01,00,13.40
2017,06,23,01,01,13.40
2017,06,23,01,02,13.40
2017,06,23,01,03,13.40
2017,06,23,01,04,13.40
2017,06,23,01,05,13.40
2017,06,23,01,06,13.40
2017,06,23,01,07,13.40
2017,06,23,01,08,13.40
2017,06,23,01,09,13.40
2017,06,23,01,10,13.40
2017,06,23,01,11,13.40
2017,06,23,01,12,13.30
2017,06,23,01,13,13.30
2017,06,23,01,14,13.30
2017,06,23,01,15,13.30
2017,06,23,01,16,13.30
2017,06,23,01,17,13.30
2017,06,23,01,18,13.30
2017,06,23,01,19,13.30
2017,06,23,01,20,13.30
2017,06,23,01,21,13.40
2017,06,23,01,22,13.40
2017,06,23,01,23,13.40
2017,06,23,01,24,13.40
2017,06,23,01,25,13.40
2017,06,23,01,26,13.40
2017,06,23,01,27,13.50
2017,06,23,01,28,13.50
2017,06,23,01,29,13.50
2017,06,23,01,30,13.50
2017,06,23,01,31,13.50
2017,06,23,01,32,13.50
2017,06,23,01,33,13.50
2017,06,23,01,34,13.50
2017,06,23,01,35,13.50
2017,06,23,01,36,13.50
2017,06,23,01,37,13.50
2017,06,23,01,38,13.50
2017,06,23,01,39,13.50
2017,06,23,01,40,13.60
2017,06,23,01,41,13.60
2017,06,23,01,42,13.60
2017,06,23,01,43,13.60
2017,06,23,01,44,13.60
2017,06,23,01,45,13.60
2017,06,23,01,46,13.70
2017,06,23,01,47,13.60
2017,06,23,01,48,13.60
2017,06,23,01,49,13.60
2017,06,23,01,50,13.60
2017,06,23,01,51,13.60
2017,06,23,01,52,13.60
2017,06,23,01,53,13.60
2017,06,23,01,54,13.60
2017,06,23,01,55,13.60
2017,06,23,01,56,13.50
2017,06,23,01,57,13.50
2017,06,23,01,58,13.50
2017,06,23,01,59,13.50
2017,06,23,02,00,13.50
2017,06,23,02,01,13.50
2017,06,23,02,02,13.50
2017,06,23,02,03,13.50
2017,06,23,02,04,13.50
2017,06,23,02,05,13.50
2017,06,23,02,06,13.40
2017,06,23,02,07,13.40
2017,06,23,02,08,13.40
2017,06,23,02,09,13.40
2017,06,23,02,10,13.40
2017,06,23,02,11,13.30
2017,06,23,02,12,13.30
2017,06,23,02,13,13.30
2017,06,23,02,14,13.20
2017,06,23,02,15,13.20
2017,06,23,02,16,13.20
2017,06,23,02,17,13.10
2017,06,23,02,18,13.10
2017,06,23,02,19,13.10
2017,06,23,02,20,13.10
2017,06,23,02,21,13.00
2017,06,23,02,22,12.90
2017,06,23,02,23,12.90
2017,06,23,02,24,12.90
2017,06,23,02,25,12.80
2017,06,23,02,26,12.80
2017,06,23,02,27,12.80
2017,06,23,02,28,12.70
2017,06,23,02,29,12.70
2017,06,23,02,30,12.70
2017,06,23,02,31,12.70
2017,06,23,02,32,12.60
2017,06,23,02,33,12.60
2017,06,23,02,34,12.60
2017,06,23,02,35,12.60
2017,06,23,02,36,12.60
2017,06,23,02,37,12.60
2017,06,23,02,38,12.50
2017,06,23,02,39,12.50
2017,06,23,02,40,12.50
2017,06,23,02,41,12.40
2017,06,23,02,42,12.40
2017,06,23,02,43,12.40
2017,06,23,02,44,12.40
2017,06,23,02,45,12.40
2017,06,23,02,46,12.40
2017,06,23,02,47,12.30
2017,06,23,02,48,12.30
2017,06,23,02,49,12.30
2017,06,23,02,50,12.30
2017,06,23,02,51,12.30
2017,06,23,02,52,12.30
2017,06,23,02,53,12.30
2017,06,23,02,54,12.30
2017,06,23,02,55,12.30
2017,06,23,02,56,12.30
2017,06,23,02,57,12.20
2017,06,23,02,58,12.20
2017,06,23,02,59,12.20
2017,06,23,03,00,12.20
2017,06,23,03,01,12.20
2017,06,23,03,02,12.20
2017,06,23,03,03,12.10
2017,06,23,03,04,12.10
2017,06,23,03,05,12.10
2017,06,23,03,06,12.10
2017,06,23,03,07,12.10
2017,06,23,03,08,12.00
2017,06,23,03,09,12.00
2017,06,23,03,10,11.90
2017,06,23,03,11,11.90
2017,06,23,03,12,11.90
2017,06,23,03,13,11.90
2017,06,23,03,14,11.80
2017,06,23,03,15,11.80
2017,06,23,03,16,11.80
2017,06,23,03,17,11.80
2017,06,23,03,18,11.70
2017,06,23,03,19,11.70
2017,06,23,03,20,11.70
2017,06,23,03,21,11.70
2017,06,23,03,22,11.70
2017,06,23,03,23,11.60
2017,06,23,03,24,11.60
2017,06,23,03,25,11.60
2017,06,23,03,26,11.60
2017,06,23,03,27,11.60
2017,06,23,03,28,11.60
2017,06,23,03,29,11.60
2017,06,23,03,30,11.60
2017,06,23,03,31,11.50
2017,06,23,03,32,11.50
2017,06,23,03,33,11.40
2017,06,23,03,34,11.40
2017,06,23,03,35,11.40
2017,06,23,03,36,11.40
2017,06,23,03,37,11.40
2017,06,23,03,38,11.40
2017,06,23,03,39,11.40
2017,06,23,03,40,11.40
2017,06,23,03,41,11.40
2017,06,23,03,42,11.40
2017,06,23,03,43,11.40
2017,06,23,03,44,11.40
2017,06,23,03,45,11.30
2017,06,23,03,46,11.30
2017,06,23,03,47,11.30
2017,06,23,03,48,11.30
2017,06,23,03,49,11.30
2017,06,23,03,50,11.30
2017,06,23,03,51,11.20
2017,06,23,03,52,11.20
2017,06,23,03,53,11.20
2017,06,23,03,54,11.20
2017,06,23,03,55,11.20
2017,06,23,03,56,11.20
2017,06,23,03,57,11.20
2017,06,23,03,58,11.20
2017,06,23,03,59,11.20
2017,06,23,04,00,11.10
2017,06,23,04,01,11.10
2017,06,23,04,02,11.10
2017,06,23,04,03,11.10
2017,06,23,05,04,10.70
2017,06,23,05,05,10.70
2017,06,23,05,06,10.70
2017,06,23,05,07,10.60
2017,06,23,05,08,10.60
2017,06,23,05,09,10.60
2017,06,23,05,10,10.60
2017,06,23,05,11,10.60
2017,06,23,05,12,10.60
2017,06,23,05,13,10.60
2017,06,23,05,14,10.60
2017,06,23,05,15,10.60
2017,06,23,05,16,10.50
2017,06,23,05,17,10.50
2017,06,23,05,18,10.50
2017,06,23,05,19,10.50
2017,06,23,05,20,10.50
2017,06,23,05,21,10.50
2017,06,23,05,22,10.50
2017,06,23,05,23,10.50
2017,06,23,05,24,10.50
2017,06,23,05,25,10.50
2017,06,23,05,26,10.50
2017,06,23,05,27,10.50
2017,06,23,05,28,10.50
2017,06,23,05,29,10.50
2017,06,23,05,30,10.50
2017,06,23,05,31,10.50
2017,06,23,05,32,10.50
2017,06,23,05,33,10.50
2017,06,23,05,34,10.50
2017,06,23,05,35,10.50
2017,06,23,05,36,10.50
2017,06,23,05,37,10.60
2017,06,23,05,38,10.60
2017,06,23,05,39,10.60
2017,06,23,05,40,10.60
2017,06,23,05,41,10.60
2017,06,23,05,42,10.60
2017,06,23,05,43,10.60
2017,06,23,05,44,10.60
2017,06,23,05,45,10.60
2017,06,23,05,46,10.70
2017,06,23,05,47,10.70
2017,06,23,05,48,10.80
2017,06,23,05,49,10.90
2017,06,23,05,50,11.10
2017,06,23,05,51,11.30
2017,06,23,05,52,11.50
2017,06,23,05,53,11.80
2017,06,23,05,54,11.90
2017,06,23,05,55,12.10
2017,06,23,05,56,12.20
2017,06,23,05,57,12.30
2017,06,23,05,58,12.40
2017,06,23,05,59,12.50
2017,06,23,06,00,12.60
2017,06,23,06,01,12.70
2017,06,23,06,02,12.70
2017,06,23,06,03,12.80
2017,06,23,06,04,12.80
2017,06,23,06,05,12.80
2017,06,23,06,06,12.80
2017,06,23,06,07,12.80
2017,06,23,06,08,12.80
2017,06,23,06,09,12.80
2017,06,23,06,10,12.80
2017,06,23,06,11,12.80
2017,06,23,06,12,12.90
2017,06,23,06,13,13.00
2017,06,23,06,14,13.00
2017,06,23,06,15,13.10
2017,06,23,06,16,13.20
2017,06,23,06,17,13.30
2017,06,23,06,18,13.40
2017,06,23,06,19,13.50
2017,06,23,06,20,13.60
2017,06,23,06,21,13.70
2017,06,23,06,22,13.70
2017,06,23,06,23,13.80
2017,06,23,06,24,13.80
2017,06,23,06,25,13.90
2017,06,23,06,26,13.90
2017,06,23,06,27,14.00
2017,06,23,06,28,14.00
2017,06,23,06,29,14.00
2017,06,23,06,30,14.10
2017,06,23,06,31,14.10
2017,06,23,06,32,14.10
2017,06,23,06,33,14.20
2017,06,23,06,34,14.20
2017,06,23,06,35,14.20
2017,06,23,06,36,14.30
2017,06,23,06,37,14.30
2017,06,23,06,38,14.40
2017,06,23,06,39,14.40
2017,06,23,06,40,14.50
2017,06,23,06,41,14.60
2017,06,23,06,42,14.60
2017,06,23,06,43,14.70
2017,06,23,06,44,14.70
2017,06,23,06,45,14.70
2017,06,23,06,46,14.80
2017,06,23,06,47,14.80
2017,06,23,06,48,14.90
2017,06,23,06,49,14.90
2017,06,23,06,50,14.90
2017,06,23,06,51,15.00
2017,06,23,06,52,15.00
2017,06,23,06,53,15.10
2017,06,23,06,54,15.10
2017,06,23,06,55,15.20
2017,06,23,06,56,15.20
2017,06,23,06,57,15.30
2017,06,23,06,58,15.30
2017,06,23,06,59,15.30
2017,06,23,07,00,15.40
2017,06,23,07,01,15.40
2017,06,23,07,02,15.40
2017,06,23,07,03,15.50
2017,06,23,07,04,15.50
2017,06,23,07,05,15.60
2017,06,23,07,06,15.60
2017,06,23,07,07,15.60
2017,06,23,07,08,15.60
2017,06,23,07,09,15.60
2017,06,23,07,10,15.60
2017,06,23,07,11,15.60
2017,06,23,07,12,15.60
2017,06,23,07,13,15.60
2017,06,23,07,14,15.60
2017,06,23,07,15,15.60
2017,06,23,07,16,15.70
2017,06,23,07,17,15.70
2017,06,23,07,18,15.70
2017,06,23,07,19,15.80
2017,06,23,07,20,15.80
2017,06,23,07,21,15.80
2017,06,23,07,22,15.90
2017,06,23,07,23,15.90
2017,06,23,07,24,15.90
2017,06,23,07,25,15.90
2017,06,23,07,26,15.90
2017,06,23,07,27,15.90
2017,06,23,07,28,16.00
2017,06,23,07,29,16.00
2017,06,23,07,30,16.00
2017,06,23,07,31,16.10
2017,06,23,07,32,16.10
2017,06,23,07,33,16.10
2017,06,23,07,34,16.10
2017,06,23,07,35,16.10
2017,06,23,07,36,16.00
2017,06,23,07,37,16.10
2017,06,23,07,38,16.10
2017,06,23,07,39,16.10
2017,06,23,07,40,16.10
2017,06,23,07,41,16.10
2017,06,23,07,42,16.10
2017,06,23,07,43,16.10
2017,06,23,07,44,16.10
2017,06,23,07,45,16.10
2017,06,23,07,46,16.10
2017,06,23,07,47,16.10
2017,06,23,07,48,16.20
2017,06,23,07,49,16.20
2017,06,23,07,50,16.20
2017,06,23,07,51,16.20
2017,06,23,07,52,16.30
2017,06,23,07,53,16.30
2017,06,23,07,54,16.40
2017,06,23,07,55,16.40
2017,06,23,07,56,16.50
2017,06,23,07,57,16.50
2017,06,23,07,58,16.60
2017,06,23,07,59,16.60
2017,06,23,08,00,16.60
2017,06,23,08,01,16.60
2017,06,23,08,02,16.70
2017,06,23,08,03,16.70
2017,06,23,08,04,16.70
2017,06,23,08,05,16.70
2017,06,23,08,06,16.70
2017,06,23,08,07,16.70
2017,06,23,08,08,16.80
2017,06,23,08,09,16.80
2017,06,23,08,10,16.80
2017,06,23,08,11,16.80
2017,06,23,08,12,16.80
2017,06,23,08,13,16.80
2017,06,23,08,14,16.80
2017,06,23,08,15,16.90
2017,06,23,08,16,16.90
2017,06,23,08,17,16.90
2017,06,23,08,18,16.90
2017,06,23,08,19,16.90
2017,06,23,08,20,16.90
2017,06,23,08,21,16.90
2017,06,23,08,22,16.90
2017,06,23,08,23,16.90
2017,06,23,08,24,16.90
2017,06,23,08,25,16.90
2017,06,23,08,26,16.90
2017,06,23,08,27,17.00
2017,06,23,08,28,17.00
2017,06,23,08,29,17.00
2017,06,23,08,30,17.10
2017,06,23,08,31,17.20
2017,06,23,08,32,17.20
2017,06,23,08,33,17.30
2017,06,23,08,34,17.30
2017,06,23,08,35,17.30
2017,06,23,08,36,17.30
2017,06,23,08,37,17.40
2017,06,23,08,38,17.40
2017,06,23,08,39,17.40
2017,06,23,08,40,17.40
2017,06,23,08,41,17.40
2017,06,23,08,42,17.40
2017,06,23,08,43,17.50
2017,06,23,08,44,17.50
2017,06,23,08,45,17.50
2017,06,23,08,46,17.50
2017,06,23,08,47,17.50
2017,06,23,08,48,17.50
2017,06,23,08,49,17.50
2017,06,23,08,50,17.50
2017,06,23,08,51,17.50
2017,06,23,08,52,17.50
2017,06,23,08,53,17.60
2017,06,23,08,54,17.60
2017,06,23,08,55,17.60
2017,06,23,08,56,17.60
2017,06,23,08,57,17.60
2017,06,23,08,58,17.60
2017,06,23,08,59,17.70
2017,06,23,09,00,17.70
2017,06,23,09,01,17.70
2017,06,23,09,02,17.60
2017,06,23,09,03,17.60
2017,06,23,09,04,17.60
2017,06,23,09,05,17.60
2017,06,23,09,06,17.60
2017,06,23,09,07,17.60
2017,06,23,09,08,17.60
2017,06,23,09,09,17.70
2017,06,23,09,10,17.70
2017,06,23,09,11,17.70
2017,06,23,09,12,17.80
2017,06,23,09,13,17.80
2017,06,23,09,14,17.80
2017,06,23,09,15,17.90
2017,06,23,09,16,17.90
2017,06,23,09,17,17.90
2017,06,23,09,18,18.00
2017,06,23,09,19,18.00
2017,06,23,09,20,18.00
2017,06,23,09,21,18.00
2017,06,23,09,22,18.00
2017,06,23,09,23,18.00
2017,06,23,09,24,18.00
2017,06,23,09,25,18.10
2017,06,23,09,26,18.20
2017,06,23,09,27,18.20
2017,06,23,09,28,18.20
2017,06,23,09,29,18.20
2017,06,23,09,30,18.20
2017,06,23,09,31,18.20
2017,06,23,09,32,18.30
2017,06,23,09,33,18.30
2017,06,23,09,34,18.30
2017,06,23,09,35,18.30
2017,06,23,09,36,18.30
2017,06,23,09,37,18.30
2017,06,23,09,38,18.30
2017,06,23,09,39,18.40
2017,06,23,09,40,18.50
2017,06,23,09,41,18.50
2017,06,23,09,42,18.60
2017,06,23,09,43,18.70
2017,06,23,09,44,18.70
2017,06,23,09,45,18.70
2017,06,23,09,46,18.70
2017,06,23,09,47,18.70
2017,06,23,09,48,18.70
2017,06,23,09,49,18.80
2017,06,23,09,50,18.80
2017,06,23,09,51,18.80
2017,06,23,09,52,18.80
2017,06,23,09,53,18.90
2017,06,23,09,54,18.90
2017,06,23,09,55,18.90
2017,06,23,09,56,18.90
2017,06,23,09,57,18.90
2017,06,23,09,58,18.90
2017,06,23,09,59,18.90
2017,06,23,10,00,19.00
2017,06,23,10,01,19.00
2017,06,23,10,02,19.10
2017,06,23,10,03,19.10
2017,06,23,10,04,19.10
2017,06,23,10,05,19.10
2017,06,23,10,06,19.10
2017,06,23,10,07,19.10
2017,06,23,10,08,19.10
2017,06,23,10,09,19.10
2017,06,23,10,10,19.10
2017,06,23,10,11,19.10
2017,06,23,10,12,19.10
2017,06,23,10,13,19.10
2017,06,23,10,14,19.20
2017,06,23,10,15,19.20
2017,06,23,10,16,19.20
2017,06,23,10,17,19.20
2017,06,23,10,18,19.20
2017,06,23,10,19,19.30
2017,06,23,10,20,19.40
2017,06,23,10,21,19.40
2017,06,23,10,22,19.40
2017,06,23,10,23,19.40
2017,06,23,10,24,19.40
2017,06,23,10,25,19.40
2017,06,23,10,26,19.40
2017,06,23,10,27,19.40
2017,06,23,10,28,19.50
2017,06,23,10,29,19.50
2017,06,23,10,30,19.60
2017,06,23,10,31,19.60
2017,06,23,10,32,19.70
2017,06,23,10,33,19.70
2017,06,23,10,34,19.80
2017,06,23,10,35,19.80
2017,06,23,10,36,19.80
2017,06,23,10,37,19.80
2017,06,23,10,38,19.90
2017,06,23,10,39,19.90
2017,06,23,10,40,19.90
2017,06,23,10,41,20.00
2017,06,23,10,42,20.00
2017,06,23,10,43,20.10
2017,06,23,10,44,20.10
2017,06,23,10,45,20.10
2017,06,23,10,46,20.10
2017,06,23,10,47,20.10
2017,06,23,10,48,20.10
2017,06,23,10,49,20.10
2017,06,23,10,50,20.10
2017,06,23,10,51,20.10
2017,06,23,10,52,20.10
2017,06,23,10,53,20.10
2017,06,23,10,54,20.20
2017,06,23,10,55,20.20
2017,06,23,10,56,20.30
2017,06,23,10,57,20.40
2017,06,23,10,58,20.40
2017,06,23,10,59,20.50
2017,06,23,11,00,20.50
2017,06,23,11,01,20.60
2017,06,23,11,02,20.60
2017,06,23,11,03,20.50
2017,06,23,11,04,20.50
2017,06,23,11,05,20.50
2017,06,23,11,06,20.40
2017,06,23,11,07,20.40
2017,06,23,11,08,20.40
2017,06,23,11,09,20.40
2017,06,23,11,10,20.40
2017,06,23,11,11,20.30
2017,06,23,11,12,20.30
2017,06,23,11,13,20.30
2017,06,23,11,14,20.30
2017,06,23,11,15,20.40
2017,06,23,11,16,20.40
2017,06,23,11,17,20.40
2017,06,23,11,18,20.40
2017,06,23,11,19,20.50
2017,06,23,11,20,20.50
2017,06,23,11,21,20.60
2017,06,23,11,22,20.60
2017,06,23,11,23,20.70
2017,06,23,11,24,20.60
2017,06,23,11,25,20.60
2017,06,23,11,26,20.70
2017,06,23,11,27,20.80
2017,06,23,11,28,20.90
2017,06,23,11,29,21.00
2017,06,23,11,30,21.10
2017,06,23,11,31,21.00
2017,06,23,11,32,21.00
2017,06,23,11,33,20.90
2017,06,23,11,34,20.80
2017,06,23,11,35,20.80
2017,06,23,11,36,20.80
2017,06,23,11,37,20.80
2017,06,23,11,38,20.80
2017,06,23,11,39,20.90
2017,06,23,11,40,20.90
2017,06,23,11,41,20.90
2017,06,23,11,42,21.00
2017,06,23,11,43,21.10
2017,06,23,11,44,21.10
2017,06,23,11,45,21.10
2017,06,23,11,46,21.20
2017,06,23,11,47,21.20
2017,06,23,11,48,21.30
2017,06,23,11,49,21.40
2017,06,23,11,50,21.40
2017,06,23,11,51,21.50
2017,06,23,11,52,21.50
2017,06,23,11,53,21.50
2017,06,23,11,54,21.40
2017,06,23,11,55,21.40
2017,06,23,11,56,21.30
2017,06,23,11,57,21.30
2017,06,23,11,58,21.40
2017,06,23,11,59,21.40
2017,06,23,12,00,21.30
2017,06,23,12,01,21.20
2017,06,23,12,02,21.20
2017,06,23,12,03,21.20
2017,06,23,12,04,21.20
2017,06,23,12,05,21.20
2017,06,23,12,06,21.30
2017,06,23,12,07,21.40
2017,06,23,12,08,21.40
2017,06,23,12,09,21.40
2017,06,23,12,10,21.50
2017,06,23,12,11,21.60
2017,06,23,12,12,21.70
2017,06,23,12,13,21.80
2017,06,23,12,14,21.90
2017,06,23,12,15,22.10
2017,06,23,12,16,22.20
2017,06,23,12,17,22.20
2017,06,23,12,18,22.30
2017,06,23,12,19,22.20
2017,06,23,12,20,22.20
2017,06,23,12,21,22.20
2017,06,23,12,22,22.30
2017,06,23,12,23,22.30
2017,06,23,12,24,22.30
2017,06,23,12,25,22.30
2017,06,23,12,26,22.30
2017,06,23,12,27,22.30
2017,06,23,12,28,22.40
2017,06,23,12,29,22.50
2017,06,23,12,30,22.60
2017,06,23,12,31,22.70
2017,06,23,12,32,22.80
2017,06,23,12,33,22.80
2017,06,23,12,34,22.90
2017,06,23,12,35,22.90
2017,06,23,12,36,22.90
2017,06,23,12,37,23.00
2017,06,23,12,38,23.10
2017,06,23,12,39,23.10
2017,06,23,12,40,23.10
2017,06,23,12,41,23.10
2017,06,23,12,42,23.00
2017,06,23,12,43,22.90
2017,06,23,12,44,22.80
2017,06,23,12,45,22.80
2017,06,23,12,46,22.70
2017,06,23,12,47,22.60
2017,06,23,12,48,22.60
2017,06,23,12,49,22.50
2017,06,23,12,50,22.40
2017,06,23,12,51,22.40
2017,06,23,12,52,22.40
2017,06,23,12,53,22.40
2017,06,23,12,54,22.40
2017,06,23,12,55,22.50
2017,06,23,12,56,22.50
2017,06,23,12,57,22.60
2017,06,23,12,58,22.80
2017,06,23,12,59,22.90
2017,06,23,13,00,23.00
2017,06,23,13,01,23.10
2017,06,23,13,02,23.20
2017,06,23,13,03,23.30
2017,06,23,13,04,23.40
2017,06,23,13,05,23.60
2017,06,23,13,06,23.70
2017,06,23,13,07,23.70
2017,06,23,13,08,23.80
2017,06,23,13,09,23.90
2017,06,23,13,10,24.00
2017,06,23,13,11,24.10
2017,06,23,13,12,24.10
2017,06,23,13,13,24.10
2017,06,23,13,14,24.00
2017,06,23,13,15,24.00
2017,06,23,13,16,23.90
2017,06,23,13,17,23.80
2017,06,23,13,18,23.80
2017,06,23,13,19,23.80
2017,06,23,13,20,23.80
2017,06,23,13,21,23.70
2017,06,23,13,22,23.70
2017,06,23,13,23,23.70
2017,06,23,13,24,23.60
2017,06,23,13,25,23.60
2017,06,23,13,26,23.60
2017,06,23,13,27,23.60
2017,06,23,13,28,23.50
2017,06,23,13,29,23.40
2017,06,23,13,30,23.30
2017,06,23,13,31,23.40
2017,06,23,13,32,23.50
2017,06,23,13,33,23.50
2017,06,23,13,34,23.60
2017,06,23,13,35,23.60
2017,06,23,13,36,23.70
2017,06,23,13,37,23.80
2017,06,23,13,38,23.80
2017,06,23,13,39,23.90
2017,06,23,13,40,23.90
2017,06,23,13,41,23.90
2017,06,23,13,42,24.00
2017,06,23,13,43,24.00
2017,06,23,13,44,24.00
2017,06,23,13,45,24.10
2017,06,23,13,46,24.00
2017,06,23,13,47,24.00
2017,06,23,13,48,24.00
2017,06,23,13,49,24.10
2017,06,23,13,50,24.00
2017,06,23,13,51,23.90
2017,06,23,13,52,23.80
2017,06,23,13,53,23.80
2017,06,23,13,54,23.70
2017,06,23,13,55,23.60
2017,06,23,13,56,23.50
2017,06,23,13,57,23.50
2017,06,23,13,58,23.40
2017,06,23,13,59,23.50
2017,06,23,14,00,23.50
2017,06,23,14,01,23.50
2017,06,23,14,02,23.40
2017,06,23,14,03,23.50
2017,06,23,14,04,23.50
2017,06,23,14,05,23.60
2017,06,23,14,06,23.60
2017,06,23,14,07,23.60
2017,06,23,14,08,23.60
2017,06,23,14,09,23.70
2017,06,23,14,10,23.80
2017,06,23,14,11,23.90
2017,06,23,14,12,24.00
2017,06,23,14,13,24.20
2017,06,23,14,14,24.30
2017,06,23,14,15,24.40
2017,06,23,14,16,24.60
2017,06,23,14,17,24.60
2017,06,23,14,18,24.60
2017,06,23,14,19,24.50
2017,06,23,14,20,24.50
2017,06,23,14,21,24.40
2017,06,23,14,22,24.40
2017,06,23,14,23,24.30
2017,06,23,14,24,24.20
2017,06,23,14,25,24.20
2017,06,23,14,26,24.20
2017,06,23,14,27,24.20
2017,06,23,14,28,24.20
2017,06,23,14,29,24.20
2017,06,23,14,30,24.20
2017,06,23,14,31,24.20
2017,06,23,14,32,24.30
2017,06,23,14,33,24.30
2017,06,23,14,34,24.40
2017,06,23,14,35,24.40
2017,06,23,14,36,24.40
2017,06,23,14,37,24.40
2017,06,23,14,38,24.40
2017,06,23,14,39,24.40
2017,06,23,14,40,24.40
2017,06,23,14,41,24.30
2017,06,23,14,42,24.30
2017,06,23,14,43,24.40
2017,06,23,14,44,24.50
2017,06,23,14,45,24.60
2017,06,23,14,46,24.70
2017,06,23,14,47,24.80
2017,06,23,14,48,24.80
2017,06,23,14,49,24.80
2017,06,23,14,50,24.80
2017,06,23,14,51,24.80
2017,06,23,14,52,24.80
2017,06,23,14,53,24.90
2017,06,23,14,54,24.90
2017,06,23,14,55,24.90
2017,06,23,14,56,24.80
2017,06,23,14,57,24.80
2017,06,23,14,58,24.80
2017,06,23,14,59,24.70
2017,06,23,15,00,24.70
2017,06,23,15,01,24.60
2017,06,23,15,02,24.60
2017,06,23,15,03,24.60
2017,06,23,15,04,24.60
2017,06,23,15,05,24.60
2017,06,23,15,06,24.60
2017,06,23,15,07,24.70
2017,06,23,15,08,24.70
2017,06,23,15,09,24.70
2017,06,23,15,10,24.70
2017,06,23,15,11,24.70
2017,06,23,15,12,24.60
2017,06,23,15,13,24.50
2017,06,23,15,14,24.40
2017,06,23,15,15,24.40
2017,06,23,15,16,24.40
2017,06,23,15,17,24.40
2017,06,23,15,18,24.50
2017,06,23,15,19,24.50
2017,06,23,15,20,24.40
2017,06,23,15,21,24.40
2017,06,23,15,22,24.30
2017,06,23,15,23,24.20
2017,06,23,15,24,24.30
2017,06,23,15,25,24.30
2017,06,23,15,26,24.40
2017,06,23,15,27,24.50
2017,06,23,15,28,24.50
2017,06,23,15,29,24.60
2017,06,23,15,30,24.60
2017,06,23,15,31,24.70
2017,06,23,15,32,24.60
2017,06,23,15,33,24.60
2017,06,23,15,34,24.60
2017,06,23,15,35,24.60
2017,06,23,15,36,24.60
2017,06,23,15,37,24.80
2017,06,23,15,38,24.80
2017,06,23,15,39,24.90
2017,06,23,15,40,25.00
2017,06,23,15,41,25.10
2017,06,23,15,42,25.10
2017,06,23,15,43,25.20
2017,06,23,15,44,25.20
2017,06,23,15,45,25.10
2017,06,23,15,46,25.10
2017,06,23,15,47,25.10
2017,06,23,15,48,25.10
2017,06,23,15,49,25.20
2017,06,23,15,50,25.20
2017,06,23,15,51,25.10
2017,06,23,15,52,25.00
2017,06,23,15,53,25.00
2017,06,23,15,54,24.90
2017,06,23,15,55,24.90
2017,06,23,15,56,24.80
2017,06,23,15,57,24.80
2017,06,23,15,58,24.80
2017,06,23,15,59,24.80
2017,06,23,16,00,24.90
2017,06,23,16,01,25.00
2017,06,23,16,02,25.10
2017,06,23,16,03,25.10
2017,06,23,16,04,25.20
2017,06,23,16,05,25.20
2017,06,23,16,06,25.30
2017,06,23,16,07,25.40
2017,06,23,16,08,25.40
2017,06,23,16,09,25.50
2017,06,23,16,10,25.60
2017,06,23,16,11,25.70
2017,06,23,16,12,25.70
2017,06,23,16,13,25.60
2017,06,23,16,14,25.60
2017,06,23,16,15,25.60
2017,06,23,16,16,25.60
2017,06,23,16,17,25.70
2017,06,23,16,18,25.70
2017,06,23,16,19,25.70
2017,06,23,16,20,25.60
2017,06,23,16,21,25.50
2017,06,23,16,22,25.50
2017,06,23,16,23,25.40
2017,06,23,16,24,25.40
2017,06,23,16,25,25.40
2017,06,23,16,26,25.50
2017,06,23,16,27,25.50
2017,06,23,16,28,25.60
2017,06,23,16,29,25.70
2017,06,23,16,30,25.80
2017,06,23,16,31,25.80
2017,06,23,16,32,25.80
2017,06,23,16,33,25.70
2017,06,23,16,34,25.70
2017,06,23,16,35,25.70
2017,06,23,16,36,25.70
2017,06,23,16,37,25.70
2017,06,23,16,38,25.70
2017,06,23,16,39,25.70
2017,06,23,16,40,25.70
2017,06,23,16,41,25.80
2017,06,23,16,42,25.80
2017,06,23,16,43,25.90
2017,06,23,16,44,25.90
2017,06,23,16,45,25.90
2017,06,23,16,46,25.90
2017,06,23,16,47,25.90
2017,06,23,16,48,25.90
2017,06,23,16,49,25.90
2017,06,23,16,50,26.00
2017,06,23,16,51,26.10
2017,06,23,16,52,26.20
2017,06,23,16,53,26.30
2017,06,23,16,54,26.30
2017,06,23,16,55,26.40
2017,06,23,16,56,26.40
2017,06,23,16,57,26.40
2017,06,23,16,58,26.40
2017,06,23,16,59,26.40
2017,06,23,17,00,26.30
2017,06,23,17,01,26.30
2017,06,23,17,02,26.30
2017,06,23,17,03,26.30
2017,06,23,17,04,26.30
2017,06,23,17,05,26.20
2017,06,23,17,06,26.10
2017,06,23,17,07,26.00
2017,06,23,17,08,25.90
2017,06,23,17,09,25.90
2017,06,23,17,10,25.90
2017,06,23,17,11,25.80
2017,06,23,17,12,25.80
2017,06,23,17,13,25.80
2017,06,23,17,14,25.70
2017,06,23,17,15,25.80
2017,06,23,17,16,25.80
2017,06,23,17,17,25.80
2017,06,23,17,18,25.80
2017,06,23,17,19,25.70
2017,06,23,17,20,25.70
2017,06,23,17,21,25.80
2017,06,23,17,22,25.90
2017,06,23,17,23,26.00
2017,06,23,17,24,26.10
2017,06,23,17,25,26.20
2017,06,23,17,26,26.30
2017,06,23,17,27,26.40
2017,06,23,17,28,26.40
2017,06,23,17,29,26.50
2017,06,23,17,30,26.60
2017,06,23,17,31,26.60
2017,06,23,17,32,26.60
2017,06,23,17,33,26.70
2017,06,23,17,34,26.80
2017,06,23,17,35,26.80
2017,06,23,17,36,26.80
2017,06,23,17,37,26.80
2017,06,23,17,38,26.80
2017,06,23,17,39,26.90
2017,06,23,17,40,26.90
2017,06,23,17,41,26.80
2017,06,23,17,42,26.80
2017,06,23,17,43,26.90
2017,06,23,17,44,26.90
2017,06,23,17,45,26.90
2017,06,23,17,46,26.90
2017,06,23,17,47,26.90
2017,06,23,17,48,26.90
2017,06,23,17,49,26.90
2017,06,23,17,50,26.80
2017,06,23,17,51,26.70
2017,06,23,17,52,26.50
2017,06,23,17,53,26.40
2017,06,23,17,54,26.40
2017,06,23,17,55,26.40
2017,06,23,17,56,26.40
2017,06,23,17,57,26.50
2017,06,23,17,58,26.50
2017,06,23,17,59,26.60
2017,06,23,18,00,26.70
2017,06,23,18,01,26.70
2017,06,23,18,02,26.70
2017,06,23,18,03,26.70
2017,06,23,18,04,26.80
2017,06,23,18,05,26.80
2017,06,23,18,06,26.80
2017,06,23,18,07,26.80
2017,06,23,18,08,26.90
2017,06,23,18,09,26.90
2017,06,23,18,10,26.90
2017,06,23,18,11,26.90
2017,06,23,18,12,26.80
2017,06,23,18,13,26.80
2017,06,23,18,14,26.80
2017,06,23,18,15,26.80
2017,06,23,18,16,26.80
2017,06,23,18,17,26.80
2017,06,23,18,18,26.80
2017,06,23,18,19,26.80